"read_dt","SO2 (ppb)","flags","PMT voltage (V)","lamp voltage (V)","lamp intensity (Hz)","internal temp (C)","react chamber temp (C)","sample flow (l/min)","pres (mmHg)","SO2 bkg (ppb)","SO2 coefficient"
2013-08-06 00:00:00,8066E-5,5C000000,-0724,0944,11125,031.4,045.5,0.383,731.3,01.19,0.508
2013-08-06 00:01:00,1311E-4,5C000000,-0724,0943,11108,031.4,045.5,0.384,731.4,01.19,0.508
2013-08-06 00:02:00,2745E-4,5C000000,-0724,0943,11115,031.4,045.4,0.384,731.3,01.19,0.508
2013-08-06 00:03:00,1656E-4,5C000000,-0724,0943,11190,031.4,045.5,0.383,731.3,01.19,0.508
2013-08-06 00:04:00,1673E-4,5C000000,-0724,0943,10974,031.4,045.5,0.383,731.3,01.19,0.508
2013-08-06 00:05:00,1783E-4,5C000000,-0724,0943,11144,031.4,045.5,0.384,731.3,01.19,0.508
2013-08-06 00:06:00,1696E-4,5C000000,-0724,0943,11038,031.4,045.5,0.384,731.3,01.19,0.508
2013-08-06 00:07:00,1578E-4,5C000000,-0724,0943,11167,031.4,045.5,0.383,731.2,01.19,0.508
2013-08-06 00:08:00,1938E-4,5C000000,-0724,0944,11111,031.4,045.5,0.384,731.2,01.19,0.508
2013-08-06 00:09:00,1645E-4,5C000000,-0724,0943,11224,031.4,045.5,0.384,731.2,01.19,0.508
2013-08-06 00:10:00,1388E-4,5C000000,-0724,0944,10974,031.4,045.5,0.383,731.2,01.19,0.508
2013-08-06 00:11:00,2214E-4,5C000000,-0724,0943,11096,031.4,045.5,0.383,731.2,01.19,0.508
2013-08-06 00:12:00,2030E-4,5C000000,-0724,0943,11052,031.5,045.5,0.384,731.2,01.19,0.508
2013-08-06 00:13:00,1721E-4,5C000000,-0724,0944,11073,031.4,045.5,0.384,731.1,01.19,0.508
2013-08-06 00:14:00,2202E-4,5C000000,-0724,0943,11015,031.5,045.5,0.383,731.1,01.19,0.508
2013-08-06 00:15:00,1614E-4,5C000000,-0724,0943,11131,031.5,045.5,0.384,731.1,01.19,0.508
2013-08-06 00:16:00,1178E-4,5C000000,-0724,0943,11053,031.4,045.5,0.384,731.1,01.19,0.508
2013-08-06 00:17:00,1821E-4,5C000000,-0724,0944,10995,031.5,045.5,0.383,731.1,01.19,0.508
2013-08-06 00:18:00,2573E-4,5C000000,-0724,0944,11076,031.5,045.5,0.383,731.1,01.19,0.508
2013-08-06 00:19:00,9229E-5,5C000000,-0724,0943,11071,031.5,045.5,0.383,731.0,01.19,0.508
2013-08-06 00:20:00,2525E-4,5C000000,-0724,0943,11060,031.5,045.5,0.384,731.0,01.19,0.508
2013-08-06 00:21:00,1317E-4,5C000000,-0724,0944,11037,031.5,045.5,0.383,731.0,01.19,0.508
2013-08-06 00:22:00,1865E-4,5C000000,-0724,0944,11078,031.5,045.5,0.383,731.0,01.19,0.508
2013-08-06 00:23:00,2054E-4,5C000000,-0724,0943,11160,031.5,045.5,0.384,731.0,01.19,0.508
2013-08-06 00:24:00,2244E-4,5C000000,-0724,0943,11119,031.5,045.5,0.384,731.0,01.19,0.508
2013-08-06 00:25:00,2411E-4,5C000000,-0724,0943,11114,031.5,045.5,0.383,731.0,01.19,0.508
2013-08-06 00:26:00,1964E-4,5C000000,-0724,0943,11158,031.5,045.5,0.383,731.0,01.19,0.508
2013-08-06 00:27:00,1737E-4,5C000000,-0724,0944,11137,031.5,045.5,0.384,731.0,01.19,0.508
2013-08-06 00:28:00,2636E-4,5C000000,-0724,0943,10994,031.5,045.5,0.383,731.0,01.19,0.508
2013-08-06 00:29:00,2606E-4,5C000000,-0724,0943,11070,031.5,045.5,0.383,731.0,01.19,0.508
2013-08-06 00:30:00,1936E-4,5C000000,-0724,0943,11002,031.5,045.5,0.384,731.0,01.19,0.508
2013-08-06 00:31:00,1546E-4,5C000000,-0724,0943,11174,031.5,045.5,0.383,731.0,01.19,0.508
2013-08-06 00:32:00,1591E-4,5C000000,-0724,0944,11067,031.5,045.5,0.383,731.0,01.19,0.508
2013-08-06 00:33:00,1650E-4,5C000000,-0724,0943,11094,031.5,045.5,0.384,730.9,01.19,0.508
2013-08-06 00:34:00,2499E-4,5C000000,-0724,0943,11073,031.5,045.5,0.384,731.0,01.19,0.508
2013-08-06 00:35:00,2276E-4,5C000000,-0724,0943,11113,031.5,045.5,0.383,730.9,01.19,0.508
2013-08-06 00:36:00,1307E-4,5C000000,-0724,0944,11128,031.5,045.5,0.383,730.9,01.19,0.508
2013-08-06 00:37:00,2162E-4,5C000000,-0724,0943,11190,031.5,045.5,0.384,730.9,01.19,0.508
2013-08-06 00:38:00,1641E-4,5C000000,-0724,0943,10907,031.5,045.5,0.383,730.9,01.19,0.508
2013-08-06 00:39:00,1770E-4,5C000000,-0724,0944,11127,031.6,045.5,0.383,730.9,01.19,0.508
2013-08-06 00:40:00,2199E-4,5C000000,-0724,0943,11003,031.6,045.5,0.384,730.9,01.19,0.508
2013-08-06 00:41:00,2188E-4,5C000000,-0724,0943,11009,031.6,045.5,0.383,730.9,01.19,0.508
2013-08-06 00:42:00,2371E-4,5C000000,-0724,0943,11085,031.6,045.5,0.383,730.8,01.19,0.508
2013-08-06 00:43:00,1715E-4,5C000000,-0724,0943,11025,031.6,045.5,0.383,730.8,01.19,0.508
2013-08-06 00:44:00,2515E-4,5C000000,-0724,0943,11164,031.6,045.5,0.383,730.8,01.19,0.508
2013-08-06 00:45:00,1749E-4,5C000000,-0724,0943,11100,031.6,045.5,0.383,730.8,01.19,0.508
2013-08-06 00:46:00,2098E-4,5C000000,-0724,0943,11103,031.6,045.5,0.383,730.8,01.19,0.508
2013-08-06 00:47:00,1845E-4,5C000000,-0724,0944,11246,031.6,045.5,0.384,730.8,01.19,0.508
2013-08-06 00:48:00,1648E-4,5C000000,-0724,0943,11075,031.6,045.5,0.383,730.8,01.19,0.508
2013-08-06 00:49:00,2224E-4,5C000000,-0724,0944,11075,031.6,045.5,0.383,730.8,01.19,0.508
2013-08-06 00:50:00,2193E-4,5C000000,-0724,0943,11007,031.6,045.5,0.383,730.7,01.19,0.508
2013-08-06 00:51:00,1261E-4,5C000000,-0724,0944,11179,031.6,045.5,0.383,730.7,01.19,0.508
2013-08-06 00:52:00,1963E-4,5C000000,-0724,0943,11000,031.6,045.5,0.383,730.7,01.19,0.508
2013-08-06 00:53:00,1453E-4,5C000000,-0724,0943,10981,031.6,045.5,0.383,730.7,01.19,0.508
2013-08-06 00:54:00,1682E-4,5C000000,-0724,0944,10982,031.6,045.5,0.383,730.7,01.19,0.508
2013-08-06 00:55:00,1805E-4,5C000000,-0724,0943,11055,031.6,045.5,0.383,730.7,01.19,0.508
2013-08-06 00:56:00,1873E-4,5C000000,-0724,0944,11053,031.6,045.5,0.383,730.7,01.19,0.508
2013-08-06 00:57:00,1918E-4,5C000000,-0724,0943,11072,031.6,045.5,0.383,730.7,01.19,0.508
2013-08-06 00:58:00,1851E-4,5C000000,-0724,0943,10901,031.6,045.5,0.383,730.7,01.19,0.508
2013-08-06 00:59:00,2486E-4,5C000000,-0724,0944,11194,031.6,045.5,0.383,730.7,01.19,0.508
2013-08-06 01:00:00,2046E-4,5C000000,-0724,0943,11133,031.7,045.5,0.383,730.6,01.19,0.508
2013-08-06 01:01:00,2696E-4,5C000000,-0724,0944,11109,031.7,045.5,0.383,730.6,01.19,0.508
2013-08-06 01:02:00,1779E-4,5C000000,-0724,0945,11022,031.7,045.5,0.383,730.6,01.19,0.508
2013-08-06 01:03:00,1849E-4,5C000000,-0724,0944,11075,031.7,045.5,0.383,730.6,01.19,0.508
2013-08-06 01:04:00,9665E-5,5C000000,-0724,0943,11118,031.7,045.5,0.383,730.6,01.19,0.508
2013-08-06 01:05:00,1686E-4,5C000000,-0724,0944,11096,031.7,045.5,0.383,730.6,01.19,0.508
2013-08-06 01:06:00,2097E-4,5C000000,-0724,0943,11085,031.7,045.5,0.383,730.6,01.19,0.508
2013-08-06 01:07:00,1998E-4,5C000000,-0724,0943,11089,031.7,045.5,0.383,730.6,01.19,0.508
2013-08-06 01:08:00,1819E-4,5C000000,-0724,0944,11064,031.7,045.5,0.383,730.5,01.19,0.508
2013-08-06 01:09:00,1966E-4,5C000000,-0724,0943,11118,031.7,045.5,0.383,730.5,01.19,0.508
2013-08-06 01:10:00,1793E-4,5C000000,-0724,0943,10967,031.7,045.5,0.383,730.5,01.19,0.508
2013-08-06 01:11:00,2334E-4,5C000000,-0724,0944,11070,031.7,045.5,0.383,730.5,01.19,0.508
2013-08-06 01:12:00,2597E-4,5C000000,-0724,0944,11051,031.7,045.5,0.382,730.5,01.19,0.508
2013-08-06 01:13:00,1308E-4,5C000000,-0724,0944,11123,031.7,045.5,0.383,730.4,01.19,0.508
2013-08-06 01:14:00,2144E-4,5C000000,-0724,0943,11038,031.7,045.5,0.383,730.5,01.19,0.508
2013-08-06 01:15:00,1782E-4,5C000000,-0724,0944,11028,031.7,045.5,0.383,730.5,01.19,0.508
2013-08-06 01:16:00,2031E-4,5C000000,-0724,0943,11110,031.7,045.5,0.383,730.5,01.19,0.508
2013-08-06 01:17:00,2409E-4,5C000000,-0724,0943,11131,031.8,045.5,0.383,730.5,01.19,0.508
2013-08-06 01:18:00,2150E-4,5C000000,-0724,0943,11020,031.7,045.5,0.383,730.5,01.19,0.508
2013-08-06 01:19:00,1013E-4,5C000000,-0724,0943,11082,031.7,045.5,0.382,730.5,01.19,0.508
2013-08-06 01:20:00,1603E-4,5C000000,-0724,0944,11023,031.8,045.5,0.383,730.5,01.19,0.508
2013-08-06 01:21:00,1469E-4,5C000000,-0724,0944,11078,031.8,045.5,0.383,730.5,01.19,0.508
2013-08-06 01:22:00,2207E-4,5C000000,-0724,0944,11068,031.8,045.5,0.383,730.4,01.19,0.508
2013-08-06 01:23:00,1768E-4,5C000000,-0724,0944,11067,031.8,045.5,0.382,730.5,01.19,0.508
2013-08-06 01:24:00,2403E-4,5C000000,-0724,0944,11108,031.8,045.5,0.383,730.5,01.19,0.508
2013-08-06 01:25:00,1766E-4,5C000000,-0724,0944,11094,031.8,045.5,0.383,730.5,01.19,0.508
2013-08-06 01:26:00,2049E-4,5C000000,-0724,0944,10968,031.8,045.5,0.383,730.5,01.19,0.508
2013-08-06 01:27:00,2581E-4,5C000000,-0724,0944,11076,031.8,045.5,0.382,730.5,01.19,0.508
2013-08-06 01:28:00,2443E-4,5C000000,-0724,0944,11113,031.8,045.5,0.383,730.4,01.19,0.508
2013-08-06 01:29:00,2028E-4,5C000000,-0724,0944,11032,031.8,045.5,0.383,730.4,01.19,0.508
2013-08-06 01:30:00,1728E-4,5C000000,-0724,0944,11140,031.8,045.5,0.382,730.4,01.19,0.508
2013-08-06 01:31:00,1898E-4,5C000000,-0724,0944,11060,031.8,045.5,0.383,730.4,01.19,0.508
2013-08-06 01:32:00,2673E-4,5C000000,-0724,0944,11154,031.8,045.5,0.383,730.3,01.19,0.508
2013-08-06 01:33:00,2266E-4,5C000000,-0724,0944,11014,031.9,045.5,0.382,730.3,01.19,0.508
2013-08-06 01:34:00,2260E-4,5C000000,-0724,0944,11078,031.8,045.5,0.382,730.3,01.19,0.508
2013-08-06 01:35:00,1810E-4,5C000000,-0724,0943,10969,031.8,045.5,0.383,730.3,01.19,0.508
2013-08-06 01:36:00,1267E-4,5C000000,-0724,0944,11087,031.9,045.5,0.383,730.4,01.19,0.508
2013-08-06 01:37:00,2506E-4,5C000000,-0724,0944,11160,031.9,045.5,0.382,730.3,01.19,0.508
2013-08-06 01:38:00,2260E-4,5C000000,-0724,0944,11100,031.9,045.5,0.382,730.3,01.19,0.508
2013-08-06 01:39:00,1944E-4,5C000000,-0724,0944,11141,031.9,045.5,0.383,730.3,01.19,0.508
2013-08-06 01:40:00,1104E-4,5C000000,-0724,0944,11095,031.9,045.5,0.382,730.3,01.19,0.508
2013-08-06 01:41:00,1934E-4,5C000000,-0724,0944,11173,031.9,045.5,0.382,730.3,01.19,0.508
2013-08-06 01:42:00,1676E-4,5C000000,-0724,0944,11053,031.9,045.5,0.383,730.3,01.19,0.508
2013-08-06 01:43:00,2287E-4,5C000000,-0724,0944,11114,031.9,045.5,0.383,730.2,01.19,0.508
2013-08-06 01:44:00,1564E-4,5C000000,-0724,0944,11034,031.9,045.5,0.382,730.2,01.19,0.508
2013-08-06 01:45:00,3854E-4,5C000000,-0724,0944,11134,031.9,045.5,0.382,730.2,01.19,0.508
2013-08-06 01:46:00,2194E-4,5C000000,-0724,0944,11065,031.9,045.5,0.383,730.2,01.19,0.508
2013-08-06 01:47:00,2153E-4,5C000000,-0724,0944,11011,031.9,045.5,0.382,730.2,01.19,0.508
2013-08-06 01:48:00,1765E-4,5C000000,-0724,0944,11085,031.9,045.5,0.382,730.2,01.19,0.508
2013-08-06 01:49:00,1557E-4,5C000000,-0724,0943,11122,031.9,045.5,0.382,730.1,01.19,0.508
2013-08-06 01:50:00,1779E-4,5C000000,-0724,0944,11134,031.9,045.5,0.382,730.1,01.19,0.508
2013-08-06 01:51:00,2258E-4,5C000000,-0724,0945,11133,031.9,045.5,0.382,730.1,01.19,0.508
2013-08-06 01:52:00,2416E-4,5C000000,-0724,0944,11158,031.9,045.5,0.382,730.0,01.19,0.508
2013-08-06 01:53:00,2537E-4,5C000000,-0724,0944,11098,032.0,045.5,0.383,730.0,01.19,0.508
2013-08-06 01:54:00,2110E-4,5C000000,-0724,0944,11000,031.9,045.5,0.382,730.1,01.19,0.508
2013-08-06 01:55:00,1781E-4,5C000000,-0724,0945,11110,032.0,045.5,0.382,730.0,01.19,0.508
2013-08-06 01:56:00,1966E-4,5C000000,-0724,0944,11130,032.0,045.5,0.383,730.0,01.19,0.508
2013-08-06 01:57:00,1789E-4,5C000000,-0724,0944,11070,032.0,045.5,0.382,730.0,01.19,0.508
2013-08-06 01:58:00,2032E-4,5C000000,-0724,0944,11013,032.0,045.5,0.382,730.0,01.19,0.508
2013-08-06 01:59:00,2654E-4,5C000000,-0724,0944,10979,032.0,045.5,0.382,730.0,01.19,0.508
2013-08-06 02:00:00,2416E-4,5C000000,-0724,0944,11043,032.0,045.5,0.382,730.0,01.19,0.508
2013-08-06 02:01:00,3030E-4,5C000000,-0724,0944,11115,032.0,045.5,0.382,729.9,01.19,0.508
2013-08-06 02:02:00,2066E-4,5C000000,-0724,0944,11042,032.0,045.5,0.382,729.9,01.19,0.508
2013-08-06 02:03:00,1972E-4,5C000000,-0724,0944,11147,032.0,045.5,0.382,729.9,01.19,0.508
2013-08-06 02:04:00,2411E-4,5C000000,-0724,0945,11024,032.0,045.5,0.382,729.9,01.19,0.508
2013-08-06 02:05:00,2218E-4,5C000000,-0724,0944,11199,032.0,045.5,0.382,729.8,01.19,0.508
2013-08-06 02:06:00,2395E-4,5C000000,-0724,0944,11031,032.1,045.5,0.382,729.7,01.19,0.508
2013-08-06 02:07:00,1608E-4,5C000000,-0724,0944,11175,032.0,045.5,0.382,729.8,01.19,0.508
2013-08-06 02:08:00,1905E-4,5C000000,-0724,0943,11193,032.1,045.5,0.382,729.6,01.19,0.508
2013-08-06 02:09:00,2360E-4,5C000000,-0724,0944,11064,032.0,045.5,0.382,729.7,01.19,0.508
2013-08-06 02:10:00,1489E-4,5C000000,-0724,0943,11080,032.1,045.5,0.381,729.6,01.19,0.508
2013-08-06 02:11:00,2074E-4,5C000000,-0724,0944,11192,032.1,045.5,0.382,729.6,01.19,0.508
2013-08-06 02:12:00,1528E-4,5C000000,-0724,0944,11015,032.1,045.5,0.382,729.6,01.19,0.508
2013-08-06 02:13:00,3237E-4,5C000000,-0724,0944,10919,032.1,045.5,0.381,729.6,01.19,0.508
2013-08-06 02:14:00,2434E-4,5C000000,-0724,0944,11081,032.1,045.5,0.382,729.6,01.19,0.508
2013-08-06 02:15:00,2505E-4,5C000000,-0724,0945,11137,032.1,045.5,0.382,729.6,01.19,0.508
2013-08-06 02:16:00,1829E-4,5C000000,-0724,0944,11157,032.1,045.5,0.381,729.6,01.19,0.508
2013-08-06 02:17:00,1703E-4,5C000000,-0724,0943,11026,032.1,045.5,0.382,729.6,01.19,0.508
2013-08-06 02:18:00,1704E-4,5C000000,-0724,0944,10937,032.1,045.5,0.382,729.6,01.19,0.508
2013-08-06 02:19:00,1755E-4,5C000000,-0724,0943,11095,032.1,045.5,0.381,729.6,01.19,0.508
2013-08-06 02:20:00,2429E-4,5C000000,-0724,0944,11094,032.1,045.5,0.382,729.6,01.19,0.508
2013-08-06 02:21:00,2515E-4,5C000000,-0724,0945,11095,032.1,045.5,0.382,729.5,01.19,0.508
2013-08-06 02:22:00,2484E-4,5C000000,-0724,0944,11070,032.1,045.5,0.381,729.6,01.19,0.508
2013-08-06 02:23:00,1055E-4,5C000000,-0724,0944,11097,032.1,045.5,0.381,729.6,01.19,0.508
2013-08-06 02:24:00,2062E-4,5C000000,-0724,0946,11128,032.1,045.5,0.382,729.5,01.19,0.508
2013-08-06 02:25:00,2221E-4,5C000000,-0724,0945,11098,032.1,045.5,0.382,729.5,01.19,0.508
2013-08-06 02:26:00,1923E-4,5C000000,-0724,0944,11087,032.1,045.5,0.381,729.5,01.19,0.508
2013-08-06 02:27:00,1659E-4,5C000000,-0724,0944,11211,032.1,045.5,0.382,729.5,01.19,0.508
2013-08-06 02:28:00,1627E-4,5C000000,-0724,0944,10988,032.1,045.5,0.382,729.5,01.19,0.508
2013-08-06 02:29:00,1850E-4,5C000000,-0724,0945,11107,032.1,045.5,0.381,729.5,01.19,0.508
2013-08-06 02:30:00,1844E-4,5C000000,-0724,0944,11111,032.2,045.5,0.382,729.5,01.19,0.508
2013-08-06 02:31:00,1571E-4,5C000000,-0724,0944,11156,032.2,045.5,0.382,729.6,01.19,0.508
2013-08-06 02:32:00,1875E-4,5C000000,-0724,0945,11165,032.2,045.5,0.381,729.5,01.19,0.508
2013-08-06 02:33:00,1642E-4,5C000000,-0724,0944,11090,032.2,045.5,0.381,729.6,01.19,0.508
2013-08-06 02:34:00,2690E-4,5C000000,-0724,0945,11130,032.2,045.5,0.382,729.6,01.19,0.508
2013-08-06 02:35:00,1511E-4,5C000000,-0724,0944,11059,032.2,045.5,0.381,729.5,01.19,0.508
2013-08-06 02:36:00,1812E-4,5C000000,-0724,0945,10965,032.2,045.5,0.381,729.5,01.19,0.508
2013-08-06 02:37:00,2161E-4,5C000000,-0724,0944,11038,032.2,045.5,0.382,729.5,01.19,0.508
2013-08-06 02:38:00,2811E-4,5C000000,-0724,0945,10972,032.2,045.5,0.382,729.5,01.19,0.508
2013-08-06 02:39:00,1363E-4,5C000000,-0724,0945,10845,032.2,045.5,0.381,729.4,01.19,0.508
2013-08-06 02:40:00,2346E-4,5C000000,-0724,0945,11087,032.2,045.5,0.381,729.4,01.19,0.508
2013-08-06 02:41:00,2700E-4,5C000000,-0724,0945,11149,032.2,045.5,0.382,729.4,01.19,0.508
2013-08-06 02:42:00,1806E-4,5C000000,-0724,0945,11048,032.2,045.5,0.381,729.4,01.19,0.508
2013-08-06 02:43:00,3160E-4,5C000000,-0724,0945,10910,032.2,045.5,0.381,729.4,01.19,0.508
2013-08-06 02:44:00,2444E-4,5C000000,-0724,0945,10894,032.2,045.5,0.382,729.4,01.19,0.508
2013-08-06 02:45:00,2429E-4,5C000000,-0724,0945,11103,032.3,045.5,0.381,729.3,01.19,0.508
2013-08-06 02:46:00,1698E-4,5C000000,-0724,0944,10944,032.3,045.5,0.381,729.4,01.19,0.508
2013-08-06 02:47:00,1907E-4,5C000000,-0724,0944,10977,032.3,045.5,0.382,729.3,01.19,0.508
2013-08-06 02:48:00,2328E-4,5C000000,-0724,0945,11116,032.3,045.5,0.381,729.3,01.19,0.508
2013-08-06 02:49:00,2114E-4,5C000000,-0724,0945,11157,032.3,045.5,0.381,729.3,01.19,0.508
2013-08-06 02:50:00,1801E-4,5C000000,-0724,0944,11009,032.3,045.5,0.382,729.3,01.19,0.508
2013-08-06 02:51:00,2686E-4,5C000000,-0724,0945,11156,032.3,045.5,0.381,729.2,01.19,0.508
2013-08-06 02:52:00,2177E-4,5C000000,-0724,0945,11124,032.3,045.5,0.381,729.2,01.19,0.508
2013-08-06 02:53:00,1688E-4,5C000000,-0724,0945,11197,032.3,045.5,0.382,729.2,01.19,0.508
2013-08-06 02:54:00,2152E-4,5C000000,-0724,0945,11105,032.3,045.5,0.381,729.2,01.19,0.508
2013-08-06 02:55:00,1792E-4,5C000000,-0724,0945,11130,032.3,045.5,0.381,729.1,01.19,0.508
2013-08-06 02:56:00,2487E-4,5C000000,-0724,0944,11028,032.3,045.5,0.381,729.1,01.19,0.508
2013-08-06 02:57:00,3272E-4,5C000000,-0724,0945,11023,032.3,045.5,0.381,729.1,01.19,0.508
2013-08-06 02:58:00,1335E-4,5C000000,-0724,0945,11069,032.3,045.5,0.381,729.0,01.19,0.508
2013-08-06 02:59:00,1838E-4,5C000000,-0724,0944,11068,032.3,045.5,0.381,729.0,01.19,0.508
2013-08-06 03:00:00,2274E-4,5C000000,-0724,0945,11023,032.3,045.5,0.381,729.0,01.19,0.508
2013-08-06 03:01:00,1782E-4,5C000000,-0724,0945,11164,032.4,045.5,0.381,729.0,01.19,0.508
2013-08-06 03:02:00,2184E-4,5C000000,-0724,0945,11057,032.3,045.5,0.381,729.0,01.19,0.508
2013-08-06 03:03:00,2584E-4,5C000000,-0724,0945,11058,032.3,045.5,0.381,729.0,01.19,0.508
2013-08-06 03:04:00,2171E-4,5C000000,-0724,0946,11078,032.4,045.5,0.381,729.0,01.19,0.508
2013-08-06 03:05:00,1631E-4,5C000000,-0724,0945,11125,032.4,045.5,0.381,729.0,01.19,0.508
2013-08-06 03:06:00,1171E-4,5C000000,-0724,0945,11056,032.4,045.5,0.380,729.0,01.19,0.508
2013-08-06 03:07:00,1765E-4,5C000000,-0724,0945,11116,032.4,045.5,0.381,729.0,01.19,0.508
2013-08-06 03:08:00,2647E-4,5C000000,-0724,0946,11040,032.4,045.5,0.381,728.9,01.19,0.508
2013-08-06 03:09:00,1897E-4,5C000000,-0724,0945,11165,032.4,045.5,0.381,729.0,01.19,0.508
2013-08-06 03:10:00,1905E-4,5C000000,-0724,0944,11080,032.4,045.5,0.381,729.0,01.19,0.508
2013-08-06 03:11:00,1012E-4,5C000000,-0724,0945,11077,032.4,045.5,0.381,729.0,01.19,0.508
2013-08-06 03:12:00,2311E-4,5C000000,-0724,0945,11190,032.4,045.5,0.380,728.9,01.19,0.508
2013-08-06 03:13:00,2021E-4,5C000000,-0724,0945,11075,032.4,045.5,0.381,729.0,01.19,0.508
2013-08-06 03:14:00,2236E-4,5C000000,-0724,0945,11001,032.4,045.5,0.381,728.9,01.19,0.508
2013-08-06 03:15:00,1611E-4,5C000000,-0724,0945,11146,032.4,045.5,0.381,728.9,01.19,0.508
2013-08-06 03:16:00,1801E-4,5C000000,-0724,0945,11101,032.4,045.5,0.381,728.9,01.19,0.508
2013-08-06 03:17:00,1126E-4,5C000000,-0724,0945,10964,032.4,045.5,0.381,728.8,01.19,0.508
2013-08-06 03:18:00,1870E-4,5C000000,-0724,0945,10969,032.4,045.5,0.381,728.8,01.19,0.508
2013-08-06 03:19:00,1521E-4,5C000000,-0724,0946,11109,032.5,045.5,0.381,728.8,01.19,0.508
2013-08-06 03:20:00,1506E-4,5C000000,-0724,0945,10805,032.4,045.5,0.380,728.8,01.19,0.508
2013-08-06 03:21:00,2103E-4,5C000000,-0724,0945,11067,032.5,045.5,0.381,728.7,01.19,0.508
2013-08-06 03:22:00,2307E-4,5C000000,-0724,0945,11012,032.5,045.5,0.381,728.7,01.19,0.508
2013-08-06 03:23:00,2219E-4,5C000000,-0724,0945,11013,032.5,045.5,0.380,728.7,01.19,0.508
2013-08-06 03:24:00,2451E-4,5C000000,-0724,0945,10940,032.5,045.5,0.381,728.7,01.19,0.508
2013-08-06 03:25:00,1036E-4,5C000000,-0724,0944,11031,032.5,045.5,0.381,728.7,01.19,0.508
2013-08-06 03:26:00,9519E-5,5C000000,-0724,0945,10951,032.5,045.5,0.380,728.7,01.19,0.508
2013-08-06 03:27:00,3100E-4,5C000000,-0724,0946,11104,032.5,045.5,0.381,728.7,01.19,0.508
2013-08-06 03:28:00,1443E-4,5C000000,-0724,0946,11010,032.5,045.5,0.380,728.7,01.19,0.508
2013-08-06 03:29:00,2015E-4,5C000000,-0724,0945,10952,032.5,045.5,0.380,728.7,01.19,0.508
2013-08-06 03:30:00,1684E-4,5C000000,-0724,0945,11157,032.5,045.5,0.381,728.8,01.19,0.508
2013-08-06 03:31:00,2488E-4,5C000000,-0724,0945,10995,032.5,045.5,0.380,728.7,01.19,0.508
2013-08-06 03:32:00,2057E-4,5C000000,-0724,0945,11127,032.5,045.5,0.380,728.7,01.19,0.508
2013-08-06 03:33:00,1179E-4,5C000000,-0724,0946,10950,032.5,045.5,0.381,728.7,01.19,0.508
2013-08-06 03:34:00,1534E-4,5C000000,-0724,0945,11153,032.6,045.5,0.381,728.7,01.19,0.508
2013-08-06 03:35:00,2550E-4,5C000000,-0724,0945,11045,032.6,045.5,0.380,728.6,01.19,0.508
2013-08-06 03:36:00,2924E-4,5C000000,-0724,0946,11079,032.6,045.5,0.381,728.6,01.19,0.508
2013-08-06 03:37:00,2687E-4,5C000000,-0724,0945,10935,032.6,045.5,0.381,728.6,01.19,0.508
2013-08-06 03:38:00,2374E-4,5C000000,-0724,0945,11198,032.6,045.5,0.380,728.6,01.19,0.508
2013-08-06 03:39:00,1811E-4,5C000000,-0724,0945,11051,032.6,045.5,0.381,728.6,01.19,0.508
2013-08-06 03:40:00,2004E-4,5C000000,-0724,0946,11054,032.6,045.5,0.380,728.6,01.19,0.508
2013-08-06 03:41:00,2890E-4,5C000000,-0724,0945,10998,032.6,045.5,0.380,728.5,01.19,0.508
2013-08-06 03:42:00,1010E-4,5C000000,-0724,0945,11032,032.6,045.5,0.381,728.6,01.19,0.508
2013-08-06 03:43:00,1918E-4,5C000000,-0724,0946,11052,032.6,045.5,0.380,728.5,01.19,0.508
2013-08-06 03:44:00,1778E-4,5C000000,-0724,0945,11029,032.6,045.5,0.380,728.5,01.19,0.508
2013-08-06 03:45:00,2120E-4,5C000000,-0724,0946,11014,032.6,045.5,0.380,728.5,01.19,0.508
2013-08-06 03:46:00,2754E-4,5C000000,-0724,0945,11057,032.7,045.5,0.380,728.4,01.19,0.508
2013-08-06 03:47:00,1923E-4,5C000000,-0724,0945,11040,032.7,045.5,0.380,728.4,01.19,0.508
2013-08-06 03:48:00,2643E-4,5C000000,-0724,0946,11108,032.7,045.5,0.380,728.4,01.19,0.508
2013-08-06 03:49:00,2188E-4,5C000000,-0724,0946,11106,032.7,045.5,0.380,728.3,01.19,0.508
2013-08-06 03:50:00,1904E-4,5C000000,-0724,0946,10976,032.7,045.5,0.380,728.3,01.19,0.508
2013-08-06 03:51:00,2147E-4,5C000000,-0724,0946,11094,032.7,045.5,0.380,728.3,01.19,0.508
2013-08-06 03:52:00,2094E-4,5C000000,-0724,0946,10998,032.7,045.5,0.380,728.3,01.19,0.508
2013-08-06 03:53:00,1912E-4,5C000000,-0724,0946,11077,032.7,045.5,0.380,728.3,01.19,0.508
2013-08-06 03:54:00,2454E-4,5C000000,-0724,0946,11103,032.7,045.5,0.380,728.2,01.19,0.508
2013-08-06 03:55:00,1858E-4,5C000000,-0724,0947,11053,032.7,045.5,0.380,728.2,01.19,0.508
2013-08-06 03:56:00,1461E-4,5C000000,-0724,0946,11113,032.7,045.5,0.380,728.3,01.19,0.508
2013-08-06 03:57:00,2655E-4,5C000000,-0724,0945,11079,032.8,045.5,0.380,728.2,01.19,0.508
2013-08-06 03:58:00,2368E-4,5C000000,-0724,0946,11129,032.7,045.5,0.380,728.3,01.19,0.508
2013-08-06 03:59:00,2250E-4,5C000000,-0724,0946,11025,032.8,045.5,0.380,728.3,01.19,0.508
2013-08-06 04:00:00,2995E-4,5C000000,-0724,0946,10920,032.8,045.5,0.380,728.3,01.19,0.508
2013-08-06 04:01:00,1728E-4,5C000000,-0724,0945,11157,032.8,045.5,0.380,728.3,01.19,0.508
2013-08-06 04:02:00,1642E-4,5C000000,-0724,0945,11078,032.8,045.5,0.379,728.3,01.19,0.508
2013-08-06 04:03:00,2526E-4,5C000000,-0724,0946,11090,032.8,045.5,0.380,728.2,01.19,0.508
2013-08-06 04:04:00,1990E-4,5C000000,-0724,0945,11095,032.8,045.5,0.380,728.2,01.19,0.508
2013-08-06 04:05:00,2064E-4,5C000000,-0724,0947,11044,032.8,045.5,0.380,728.3,01.19,0.508
2013-08-06 04:06:00,2168E-4,5C000000,-0724,0945,11004,032.8,045.5,0.380,728.2,01.19,0.508
2013-08-06 04:07:00,1470E-4,5C000000,-0724,0946,10958,032.8,045.5,0.380,728.3,01.19,0.508
2013-08-06 04:08:00,1869E-4,5C000000,-0724,0946,11196,032.8,045.5,0.380,728.2,01.19,0.508
2013-08-06 04:09:00,1775E-4,5C000000,-0724,0946,10948,032.8,045.5,0.380,728.2,01.19,0.508
2013-08-06 04:10:00,2520E-4,5C000000,-0724,0946,11046,032.9,045.5,0.379,728.1,01.19,0.508
2013-08-06 04:11:00,2373E-4,5C000000,-0724,0945,11148,032.9,045.5,0.380,728.1,01.19,0.508
2013-08-06 04:12:00,2013E-4,5C000000,-0724,0946,10974,032.9,045.5,0.380,728.1,01.19,0.508
2013-08-06 04:13:00,2169E-4,5C000000,-0724,0947,11094,032.9,045.5,0.379,728.1,01.19,0.508
2013-08-06 04:14:00,3786E-4,5C000000,-0724,0946,11022,032.9,045.5,0.380,728.1,01.19,0.508
2013-08-06 04:15:00,1415E-4,5C000000,-0724,0946,11109,032.9,045.5,0.380,728.1,01.19,0.508
2013-08-06 04:16:00,2534E-4,5C000000,-0724,0947,11052,032.9,045.5,0.379,728.1,01.19,0.508
2013-08-06 04:17:00,1849E-4,5C000000,-0724,0946,11197,032.9,045.5,0.380,728.1,01.19,0.508
2013-08-06 04:18:00,1796E-4,5C000000,-0724,0946,11034,032.9,045.5,0.379,727.9,01.19,0.508
2013-08-06 04:19:00,3109E-4,5C000000,-0724,0945,11102,032.9,045.5,0.380,728.0,01.19,0.508
2013-08-06 04:20:00,1474E-4,5C000000,-0724,0946,11023,032.9,045.5,0.380,728.0,01.19,0.508